Temp
15 15 14 14 15 14 14 14 13 14 14 14 13 13 13 13 13 13 11 11 10 10
14 14 15 15 15 15 14 14 14 14 13 13 13 13 12 12 12 12 12 11 11 10
12 13 13 14 14 14 13 14 14 14 13 13 13 13 12 12 12 11 11 11 10 9
12 12 12 13 14 14 13 13 13 13 13 12 13 13 13 12 11 12 11 11 10 10
12 12 13 13 12 12 12 12 12 13 12 12 12 13 12 12 12 11 11 11 10 10
10 11 11 12 11 11 10 10 12 12 12 12 12 13 12 12 12 11 11 10 10 10
9 9 10 10 9 9 10 10 10 11 11 11 12 12 13 12 11 11 11 10 10 9
6 6 7 6 7 8 9 10 10 10 10 11 11 12 12 11 10 10 10 9 10 9
3 4 4 5 5 7 9 9 9 10 10 11 10 11 11 11 10 9 9 10 9 8
2 3 4 5 6 7 8 9 9 10 9 9 10 11 11 10 9 9 9 9 9 9
1 2 3 4 5 7 8 8 9 9 9 9 10 10 10 8 8 9 9 9 9 9
-0 0 1 3 5 6 8 8 9 9 9 9 10 10 9 8 8 8 8 8 8 8
-1 -1 -0 1 4 6 7 8 8 9 9 9 10 9 8 8 7 8 8 8 8 8
-1 -2 -1 -0 1 3 5 8 8 8 8 9 9 9 7 7 7 7 8 7 7 7
Height
1432 1436 1437 1438 1438 1440 1442 1444 1447 1450 1452 1454 1456 1458 1459 1461 1463 1465 1468 1471 1475 1477
1430 1431 1431 1431 1432 1433 1434 1436 1438 1440 1443 1445 1447 1450 1451 1452 1455 1457 1461 1464 1468 1470
1421 1422 1424 1424 1424 1423 1424 1426 1428 1431 1433 1436 1438 1441 1443 1445 1447 1450 1453 1457 1460 1463
1413 1413 1414 1412 1412 1412 1412 1415 1416 1419 1423 1427 1428 1431 1434 1436 1439 1443 1446 1450 1453 1456
1404 1404 1404 1403 1404 1402 1400 1404 1405 1409 1413 1417 1419 1422 1425 1428 1430 1434 1438 1441 1446 1450
1399 1397 1395 1394 1393 1392 1392 1393 1395 1399 1403 1406 1410 1412 1416 1419 1422 1426 1429 1434 1438 1443
1393 1391 1386 1384 1384 1383 1385 1386 1388 1390 1394 1398 1401 1403 1407 1412 1415 1419 1422 1427 1432 1436
1390 1385 1381 1380 1376 1375 1377 1379 1382 1384 1386 1389 1392 1395 1400 1403 1407 1412 1416 1421 1425 1429
1387 1381 1376 1371 1368 1368 1369 1373 1375 1376 1378 1381 1384 1388 1393 1396 1400 1406 1410 1414 1419 1423
1381 1375 1369 1364 1363 1361 1363 1366 1368 1369 1371 1373 1377 1381 1387 1391 1396 1400 1403 1408 1413 1417
1377 1370 1364 1360 1357 1355 1356 1358 1360 1362 1364 1367 1370 1375 1380 1385 1389 1394 1398 1403 1407 1411
1373 1365 1359 1355 1351 1349 1348 1351 1352 1355 1358 1359 1364 1371 1376 1381 1385 1389 1393 1398 1402 1405
1373 1366 1359 1351 1345 1344 1343 1345 1345 1348 1350 1355 1359 1364 1370 1375 1381 1383 1388 1393 1398 1400
1374 1366 1357 1350 1345 1340 1339 1339 1342 1345 1347 1351 1353 1360 1367 1370 1375 1377 1384 1389 1394 1397
Wind_Speed
10 14 17 19 22 25 28 30 29 32 35 35 33 33 34 36 37 35 39 37 34 32
12 15 18 22 26 31 30 30 31 30 34 35 33 33 33 37 40 35 33 34 36 34
13 15 17 21 23 28 31 33 34 34 32 33 35 32 31 34 39 34 34 34 33 30
20 21 21 22 26 29 31 33 38 38 35 34 31 32 34 33 40 38 36 34 32 27
24 25 26 27 27 28 31 33 37 38 37 34 32 32 33 34 34 37 38 33 29 28
22 25 25 27 27 26 24 25 31 37 37 35 35 34 33 34 33 33 39 33 28 30
23 26 26 27 25 23 22 19 26 34 35 35 35 35 34 35 33 33 34 30 26 28
26 26 25 26 23 22 24 22 26 29 33 34 35 36 37 34 33 33 30 30 29 28
28 27 24 23 22 23 27 25 25 29 31 34 36 35 34 35 32 30 31 31 30 29
29 29 25 22 21 20 23 25 26 29 31 32 39 34 36 30 28 30 30 28 28 26
33 32 28 23 21 20 23 25 26 29 30 37 35 35 30 28 29 29 27 26 26 25
35 35 32 28 22 20 23 26 28 28 31 35 33 31 30 28 28 28 27 25 24 25
34 33 32 29 25 19 20 23 30 26 35 36 37 34 31 30 30 28 26 24 23 22
32 31 30 27 24 18 15 19 28 28 31 41 33 32 30 31 32 30 27 25 24 22
Wind_Direction
238 244 246 247 250 252 249 240 244 249 250 249 254 259 264 254 249 246 242 242 246 247
247 253 259 258 254 256 252 246 242 241 250 250 253 263 262 245 246 239 240 245 249 245
303 290 271 264 266 263 259 248 244 239 241 246 256 256 252 244 243 241 242 243 244 241
308 301 293 285 274 270 261 251 243 239 236 242 255 246 245 245 243 244 244 241 242 243
301 298 292 284 277 271 263 252 246 241 237 239 250 252 248 243 241 241 239 236 238 240
308 303 295 286 281 271 259 258 240 237 238 237 248 256 248 236 238 241 232 239 237 239
315 310 303 293 281 262 249 248 246 237 238 241 249 247 244 234 235 238 234 236 231 234
327 320 308 295 283 256 241 240 240 240 243 242 245 238 238 233 229 229 230 229 231 234
336 331 317 303 291 263 239 239 243 241 245 242 240 241 232 225 226 223 225 227 226 232
344 339 327 312 291 273 246 241 246 244 247 241 238 245 225 222 225 221 222 222 219 226
350 346 338 324 301 276 247 237 255 248 246 242 237 227 218 214 218 217 218 219 224 226
350 347 343 331 313 290 251 245 252 250 243 232 234 217 208 212 209 211 214 218 221 224
351 347 342 335 324 302 273 246 242 238 224 244 217 206 204 206 204 199 205 207 211 216
358 353 348 340 331 322 289 235 231 241 222 221 196 200 203 202 198 197 204 206 208 210